Meteo Giornale » Osservazioni meteo Italia » Genova-Sestri

ore: 16:50 - Osservazioni Meteo Genova-Sestri
Lat. 44° 25' N Lon. 8° 51' E Alt. 2 metri s.l.m.

nuvoloso Europe/Rome

21 °C

Nuvoloso

Temp. 24 Ore

19 °C

24 °C

Est

11.1 Km/h

Dew point 18 °C

Umidità 82 %

Visibilità  10 Km

Il sole sorge alle ore 07:10

Il sole tramonta alle ore 19:23

Data e Ora Cielo e Fenomeni T °C DP °C Um. % Pres. hPa Vis. km Vento km/h
Oggi h: 16:50 nuvoloso Nuvoloso 21 18 82 1013 10 E 11.1
Oggi h: 16:20 poco_nuvoloso Poco Nuvoloso 21 17 77 1013 10 E 9.3
Oggi h: 15:50 nuvoloso Nuvoloso 20 18 88 1013 10 E 9.3
Oggi h: 15:20 molto_nuvoloso Molto Nuvoloso 20 18 88 1013 10 E 16.7
Oggi h: 14:50 coperto_pioggia Pioggia Debole 20 19 93 1014 10 N 5.5
Oggi h: 14:20 coperto_pioggia Pioggia Debole 19 18 93 1014 10 N/NO 11.1
Oggi h: 13:50 nuvoloso_temporali Temporale con Pioggia 19 19 100 1015 4 N 3.7
Oggi h: 13:20 nuvoloso_temporali Temporale con Pioggia 20 18 88 1015 3 S 22.2
Oggi h: 12:50 nuvoloso_temporali Temporale con Pioggia 20 19 93 1015 2 SO 7.4
Oggi h: 12:20 nuvoloso_temporali Temporale con Pioggia Debole 20 19 93 1015 6 SO 11.1
Oggi h: 11:50 coperto_pioggia Pioggia Debole Temporale nelle Vicinanze 21 18 82 1014 10 E 9.3
Oggi h: 11:20 coperto_pioggia Pioggia Debole Temporale nelle Vicinanze 21 18 82 1015 10 N 5.5
Oggi h: 10:50 coperto_pioggia Pioggia Debole Rovescio nelle Vicinanze 21 18 82 1015 10 E/NE 9.3
Oggi h: 10:20 coperto_pioggia Pioggia Debole 21 18 82 1014 10 N 5.5
Oggi h: 09:50 coperto_pioggia Pioggia Debole 21 17 77 1014 10 NE 7.4
Oggi h: 09:20 molto_nuvoloso Rovescio nelle Vicinanze 20 17 82 1014 10 E/NE 9.3
Oggi h: 08:50 nuvoloso_temporali Temporale nelle Vicinanze 20 16 77 1015 10 E 9.3
Oggi h: 08:20 nuvoloso_temporali Temporale nelle Vicinanze 21 16 73 1014 10 E/NE 14.8
Oggi h: 07:50 nuvoloso_temporali Temporale nelle Vicinanze 21 16 73 1014 10 N/NE 11.1
Oggi h: 07:20 nuvoloso_temporali Temporale nelle Vicinanze 21 16 73 1014 10 NE 13
Oggi h: 06:50 molto_nuvoloso Molto Nuvoloso 21 16 73 1014 10 N/NE 9.3
Oggi h: 06:20 nuvoloso Nuvoloso 21 16 73 1014 10 N/NE 11.1
Oggi h: 05:50 molto_nuvoloso Molto Nuvoloso 21 16 73 1014 10 N/NE 11.1
Oggi h: 05:20 nuvoloso Nuvoloso 21 16 73 1014 10 N/NE 9.3
Oggi h: 04:50 nuvoloso Nuvoloso 21 16 73 1014 10 N/NE 11.1
Oggi h: 04:20 nuvoloso Nuvoloso 21 16 73 1014 10 N/NE 14.8
Oggi h: 03:50 nuvoloso Nuvoloso 21 16 73 1014 10 N/NE 13
Oggi h: 03:20 nuvoloso Nuvoloso 21 17 77 1014 10 N/NE 16.7
Oggi h: 02:50 nuvoloso Nuvoloso 21 17 77 1014 10 N/NE 18.5
Oggi h: 02:20 nuvoloso Nuvoloso 21 17 77 1014 10 N/NE 16.7
Oggi h: 01:50 nuvoloso Nuvoloso 21 17 77 1015 10 N/NE 16.7
Oggi h: 01:20 nuvoloso Nuvoloso 22 17 73 1015 10 N 13
Oggi h: 00:50 nuvoloso Nuvoloso 22 17 73 1015 10 N 14.8
Oggi h: 00:20 nuvoloso Nuvoloso 22 17 73 1015 10 N/NE 13
Ieri h: 23:50 poco_nuvoloso Poco Nuvoloso 22 17 73 1015 10 N 14.8
Ieri h: 23:20 poco_nuvoloso Poco Nuvoloso 21 17 77 1015 10 N/NE 14.8
Ieri h: 22:50 sereno Sereno 22 17 73 1015 10 N 11.1
Ieri h: 22:20 sereno Sereno 22 17 73 1015 10 N 9.3
Ieri h: 21:50 sereno Sereno 22 17 73 1015 10 N/NE 18.5
Ieri h: 21:20 poco_nuvoloso Poco Nuvoloso 22 17 73 1015 10 N/NE 11.1
Ieri h: 20:50 poco_nuvoloso Poco Nuvoloso 22 16 68 1014 10 N/NE 7.4
Ieri h: 20:20 nuvoloso Nuvoloso 22 17 73 1015 10 N 7.4
Ieri h: 19:50 nuvoloso Nuvoloso 23 17 68 1015 10 N 5.5
Ieri h: 19:20 poco_nuvoloso Poco Nuvoloso 23 17 68 1014 10 N 3.7
Ieri h: 18:50 poco_nuvoloso Poco Nuvoloso 23 18 73 1014 10 O/SO 7.4
Ieri h: 17:50 poco_nuvoloso Poco Nuvoloso 24 16 60 1014 10 O/SO 14.8